Ludington, MI

12:50 PM EST on November 22, 2019 (GMT -0500)
Mason County

Weather History for KLDM - June, 2019

Change the Weather History Date:

Thursday, June 13, 2019

  Actual Average Record
Temperature  
Mean Temperature 54 °F -  
Max Temperature 61 °F 76 °F 91 °F (1956)
Min Temperature 46 °F 51 °F 37 °F (1978)
Degree Days  
Heating Degree Days 12    
Growing Degree Days 4 (Base 50)    
Moisture  
Dew Point 45 °F    
Average Humidity 79    
Maximum Humidity 98    
Minimum Humidity 40    
Precipitation  
Precipitation 0.69 in - - ()
Sea Level Pressure  
Sea Level Pressure 29.82 in    
Wind  
Wind Speed 9 mph (North)    
Max Wind Speed 21 mph    
Max Gust Speed 32 mph    
Visibility 9 miles    
Events Rain    
Averages and records for this station are not official NWS values.
T = Trace of Precipitation, MM = Missing Value Source: NWS Daily Summary

Daily Weather History Graph

Daily Weather History Graph

Search for Another Location

Airport or City:

Astronomy

Jun. 13, 2019 Rise Set
Actual Time 6:02 AM EDT 9:29 PM EDT
Civil Twilight 5:26 AM EDT 10:05 PM EDT
Nautical Twilight 4:38 AM EDT 10:52 PM EDT
Astronomical Twilight 3:38 AM EDT 11:53 PM EDT
Moon 5:35 PM EDT (6/13) 3:57 AM EDT (6/13)
Length of Visible Light 16h 39m
Length of Day
15h 26m
Waxing Gibbous, 85% of the Moon is Illuminated
Jun 13
Waxing Gibbous
Jun 17
Full
Jun 25
Last Quarter
Jul 2
New
Jul 9
First Quarter

Hourly Weather History & Observations

Time (EDT) Temp. Windchill Dew Point Humidity Pressure Visibility Wind Dir Wind Speed Gust Speed Precip Events Conditions
12:16 AM 54.0 °F - 53.2 °F 97% 29.79 in 10.0 mi North 6.9 mph - 0.01 in Rain Rain
12:35 AM 53.6 °F - 52.9 °F 97% 29.78 in 10.0 mi North 6.9 mph - 0.02 in Rain Rain
12:55 AM 53.4 °F - 52.7 °F 97% 29.78 in 10.0 mi NE 5.8 mph - 0.03 in   Drizzle
12:56 AM 53.2 °F - 52.7 °F 98% 29.77 in 10.0 mi NE 5.8 mph - 0.03 in   Drizzle
1:19 AM 53.1 °F - 52.3 °F 97% 29.77 in 10.0 mi Calm Calm - N/A   Light Drizzle
1:37 AM 53.1 °F - 52.3 °F 97% 29.77 in 7.0 mi NNE 3.5 mph - N/A Rain Rain
1:55 AM 53.1 °F - 52.3 °F 97% 29.77 in 7.0 mi NNE 3.5 mph - 0.01 in Rain Light Rain
2:15 AM 53.1 °F - 52.3 °F 97% 29.76 in 7.0 mi North 5.8 mph - N/A Rain Rain
2:16 AM 53.1 °F - 52.3 °F 97% 29.76 in 7.0 mi North 5.8 mph - N/A Rain Rain
2:35 AM 52.7 °F - 52.0 °F 97% 29.75 in 7.0 mi North 6.9 mph - 0.01 in   Drizzle
2:40 AM 52.7 °F - 51.8 °F 97% 29.75 in 7.0 mi North 6.9 mph - 0.01 in   Drizzle
2:58 AM 52.3 °F - 51.8 °F 98% 29.75 in 10.0 mi North 6.9 mph - 0.01 in Rain Light Rain
3:16 AM 52.3 °F - 51.8 °F 98% 29.74 in 7.0 mi North 4.6 mph - 0.01 in Rain Rain
3:35 AM 52.2 °F - 51.4 °F 97% 29.74 in 10.0 mi North 6.9 mph - 0.03 in Rain Light Rain
3:55 AM 50.5 °F - 49.6 °F 97% 29.74 in 10.0 mi North 9.2 mph - 0.04 in Rain Rain
3:56 AM 50.4 °F - 49.5 °F 97% 29.74 in 10.0 mi NNW 12.7 mph 17.3 mph 0.04 in Rain Rain
4:19 AM 48.2 °F - 47.3 °F 97% 29.73 in 10.0 mi North 13.8 mph 18.4 mph 0.02 in Rain Rain
4:37 AM 47.5 °F - 46.6 °F 97% 29.73 in 10.0 mi North 12.7 mph 18.4 mph 0.03 in Rain Rain
4:55 AM 46.6 °F - 45.7 °F 97% 29.73 in 10.0 mi North 13.8 mph 18.4 mph 0.04 in Rain Light Rain
5:15 AM 46.4 °F 40.7 °F 45.5 °F 97% 29.74 in 10.0 mi North 12.7 mph 17.3 mph 0.01 in Rain Light Rain
5:35 AM 46.8 °F - 45.9 °F 97% 29.74 in 7.0 mi North 10.4 mph - 0.03 in Rain Heavy Rain
5:40 AM 46.8 °F - 45.9 °F 97% 29.74 in 7.0 mi North 9.2 mph 16.1 mph 0.05 in Rain Heavy Rain
5:58 AM 46.8 °F - 45.7 °F 96% 29.73 in 3.0 mi North 10.4 mph 19.6 mph 0.12 in   Overcast
6:16 AM 46.6 °F - 45.7 °F 97% 29.73 in 3.0 mi North 9.2 mph - 0.10 in Rain Heavy Rain
6:35 AM 46.6 °F - 45.7 °F 97% 29.74 in 7.0 mi North 9.2 mph - 0.17 in Rain Rain
6:55 AM 46.9 °F - 46.0 °F 97% 29.74 in 5.0 mi North 10.4 mph - 0.23 in Rain Rain
6:56 AM 46.9 °F - 46.0 °F 97% 29.74 in 5.0 mi North 10.4 mph - 0.23 in Rain Rain
7:19 AM 47.3 °F - 46.2 °F 96% 29.74 in 5.0 mi North 11.5 mph 18.4 mph 0.05 in Rain Heavy Rain
7:37 AM 47.3 °F - 46.4 °F 97% 29.75 in 7.0 mi North 9.2 mph 16.1 mph 0.11 in Rain Heavy Rain
7:55 AM 47.3 °F - 46.4 °F 97% 29.75 in 7.0 mi North 9.2 mph - 0.13 in Rain Rain
8:15 AM 47.8 °F - 46.9 °F 97% 29.75 in 10.0 mi North 10.4 mph - 0.02 in Rain Rain
8:35 AM 47.8 °F - 46.9 °F 97% 29.76 in 10.0 mi NNW 11.5 mph - 0.03 in Rain Rain
8:39 AM 47.5 °F - 46.6 °F 97% 29.76 in 7.0 mi North 10.4 mph - 0.03 in Rain Rain
8:58 AM 47.5 °F - 46.6 °F 97% 29.77 in 7.0 mi North 10.4 mph 17.3 mph 0.05 in Rain Rain
9:16 AM 47.7 °F - 46.6 °F 96% 29.77 in 7.0 mi North 11.5 mph 18.4 mph 0.01 in Rain Rain
9:35 AM 47.7 °F - 46.6 °F 96% 29.77 in 10.0 mi North 15.0 mph 19.6 mph 0.02 in Rain Light Rain
9:55 AM 48.2 °F - 46.8 °F 95% 29.78 in 10.0 mi North 11.5 mph 20.7 mph 0.02 in Rain Rain
10:19 AM 48.2 °F - 46.8 °F 95% 29.79 in 10.0 mi North 11.5 mph 20.7 mph N/A Rain Rain
10:37 AM 48.2 °F - 46.6 °F 94% 29.79 in 10.0 mi North 12.7 mph 26.5 mph N/A   Drizzle
10:55 AM 48.4 °F - 46.9 °F 95% 29.79 in 10.0 mi North 12.7 mph 20.7 mph N/A Rain Light Rain
11:15 AM 49.1 °F - 47.3 °F 93% 29.79 in 10.0 mi North 15.0 mph 20.7 mph 0.01 in   Overcast
11:35 AM 49.6 °F - 47.3 °F 92% 29.80 in 10.0 mi North 15.0 mph 23.0 mph 0.01 in   Overcast
11:40 AM 50.2 °F - 48.0 °F 92% 29.80 in 10.0 mi North 13.8 mph - 0.01 in   Overcast
11:58 AM 51.1 °F - 47.8 °F 89% 29.80 in 10.0 mi NNW 17.3 mph 27.6 mph 0.01 in   Overcast
12:16 PM 52.3 °F - 47.8 °F 85% 29.81 in 10.0 mi North 13.8 mph 25.3 mph N/A   Overcast
12:35 PM 54.0 °F - 48.4 °F 81% 29.82 in 10.0 mi North 17.3 mph 26.5 mph N/A   Overcast
12:55 PM 55.4 °F - 48.4 °F 77% 29.82 in 10.0 mi North 19.6 mph 27.6 mph N/A   Mostly Cloudy
12:56 PM 55.4 °F - 48.4 °F 77% 29.82 in 10.0 mi North 19.6 mph 27.6 mph N/A   Mostly Cloudy
1:19 PM 55.2 °F - 47.3 °F 75% 29.83 in 10.0 mi North 16.1 mph 26.5 mph N/A   Mostly Cloudy
1:37 PM 56.3 °F - 46.9 °F 71% 29.83 in 10.0 mi North 17.3 mph 31.1 mph N/A   Scattered Clouds
1:55 PM 57.0 °F - 46.6 °F 68% 29.84 in 10.0 mi North 19.6 mph 32.2 mph N/A   Clear
1:56 PM 57.0 °F - 46.6 °F 68% 29.84 in 10.0 mi North 20.7 mph 32.2 mph N/A   Clear
2:15 PM 57.6 °F - 46.0 °F 65% 29.84 in 10.0 mi North 17.3 mph 31.1 mph N/A   Clear
2:35 PM 57.9 °F - 45.7 °F 64% 29.85 in 10.0 mi North 12.7 mph 26.5 mph N/A   Clear
2:58 PM 58.3 °F - 45.0 °F 61% 29.85 in 10.0 mi North 20.7 mph 29.9 mph N/A   Clear
3:16 PM 59.2 °F - 44.8 °F 59% 29.85 in 10.0 mi North 17.3 mph 29.9 mph N/A   Clear
3:35 PM 59.7 °F - 43.5 °F 55% 29.86 in 10.0 mi NNW 20.7 mph 29.9 mph N/A   Clear
3:55 PM 60.1 °F - 42.8 °F 53% 29.86 in 10.0 mi North 15.0 mph 25.3 mph N/A   Clear
4:19 PM 60.1 °F - 39.9 °F 47% 29.87 in 10.0 mi North 15.0 mph 28.8 mph N/A   Clear
4:37 PM 60.1 °F - 38.7 °F 45% 29.87 in 10.0 mi North 19.6 mph 26.5 mph N/A   Clear
4:55 PM 60.4 °F - 38.5 °F 44% 29.88 in 10.0 mi North 20.7 mph 28.8 mph N/A   Clear
5:15 PM 61.0 °F - 38.1 °F 43% 29.88 in 10.0 mi North 15.0 mph 27.6 mph N/A   Clear
5:35 PM 61.5 °F - 38.3 °F 42% 29.88 in 10.0 mi North 13.8 mph 20.7 mph N/A   Clear
5:58 PM 61.7 °F - 37.0 °F 40% 29.88 in 10.0 mi North 16.1 mph 21.9 mph N/A   Clear
6:16 PM 61.3 °F - 36.9 °F 40% 29.88 in 10.0 mi North 15.0 mph 21.9 mph N/A   Clear
6:35 PM 60.8 °F - 37.4 °F 42% 29.89 in 10.0 mi North 10.4 mph 21.9 mph N/A   Clear
6:55 PM 61.0 °F - 37.6 °F 42% 29.89 in 10.0 mi North 8.1 mph - N/A   Clear
7:19 PM 60.6 °F - 36.7 °F 41% 29.89 in 10.0 mi North 8.1 mph 16.1 mph N/A   Clear
7:37 PM 60.3 °F - 37.0 °F 42% 29.89 in 10.0 mi North 5.8 mph - N/A   Clear
7:55 PM 59.9 °F - 37.6 °F 44% 29.90 in 10.0 mi North 4.6 mph - N/A   Clear
7:56 PM 59.9 °F - 37.4 °F 43% 29.90 in 10.0 mi NNE 4.6 mph - N/A   Clear
8:15 PM 59.2 °F - 38.8 °F 47% 29.90 in 10.0 mi North 5.8 mph - N/A   Clear
8:35 PM 57.6 °F - 39.4 °F 51% 29.90 in 10.0 mi Calm Calm - N/A   Clear
8:58 PM 55.4 °F - 40.3 °F 57% 29.90 in 10.0 mi Calm Calm - N/A   Clear
9:16 PM 53.8 °F - 42.4 °F 65% 29.90 in 10.0 mi Calm Calm - N/A   Clear
9:35 PM 51.4 °F - 42.6 °F 72% 29.91 in 10.0 mi Calm Calm - N/A   Clear
9:36 PM 51.3 °F - 42.8 °F 73% 29.91 in 10.0 mi Calm Calm - N/A   Clear
9:55 PM 49.1 °F - 40.3 °F 72% 29.91 in 10.0 mi West 3.5 mph - N/A   Clear
10:19 PM 47.7 °F - 40.5 °F 76% 29.92 in 10.0 mi West 5.8 mph - N/A   Scattered Clouds
10:37 PM 47.8 °F - 40.1 °F 75% 29.92 in 10.0 mi West 3.5 mph - N/A   Scattered Clouds
10:55 PM 47.3 °F - 40.1 °F 76% 29.93 in 10.0 mi West 3.5 mph - N/A   Scattered Clouds
10:56 PM 47.3 °F - 40.1 °F 76% 29.93 in 10.0 mi WSW 4.6 mph - N/A   Scattered Clouds
11:15 PM 47.5 °F - 40.1 °F 76% 29.93 in 10.0 mi West 4.6 mph - N/A   Clear
11:16 PM 47.7 °F - 40.1 °F 75% 29.93 in 10.0 mi West 3.5 mph - N/A   Clear
11:35 PM 47.3 °F - 39.9 °F 76% 29.93 in 10.0 mi West 3.5 mph - N/A   Clear
11:58 PM 47.5 °F - 39.7 °F 75% 29.94 in 10.0 mi West 3.5 mph - N/A   Clear